| time (UTC) | temp C | wind direction | speed KPH | gust KPH | rain 1hr cm | rain 24hr cm | rain mn cm | humidity % | barometer mb |
| 20260505003529 | 27 | 135 | 0.0 | 3.2 | 0.00 | 0.00 | 0.00 | 64 | |
| 20260505002529 | 27 | 135 | 1.6 | 4.8 | 0.00 | 0.00 | 0.00 | 65 | |
| 20260505001529 | 27 | 151 | 1.6 | 6.4 | 0.00 | 0.00 | 0.00 | 69 | |
| 20260505000529 | 26 | 135 | 1.6 | 3.2 | 0.00 | 0.00 | 0.00 | 68 | |
| 20260504235529 | 26 | 135 | 1.6 | 3.2 | 0.00 | 0.00 | 0.00 | 72 | |
| 20260504234529 | 26 | 112 | 0.0 | 1.6 | 0.00 | 0.00 | 0.00 | 74 | |
| 20260504233529 | 25 | 112 | 0.0 | 3.2 | 0.00 | 0.00 | 0.00 | 74 | |
| 20260504232529 | 24 | 116 | 1.6 | 4.8 | 0.00 | 0.00 | 0.00 | 79 | |
| 20260504231529 | 23 | 135 | 0.0 | 3.2 | 0.00 | 0.00 | 0.00 | 82 | |
| 20260504230529 | 22 | 141 | 1.6 | 6.4 | 0.00 | 0.00 | 0.00 | 84 | |
| 20260504225529 | 22 | 137 | 1.6 | 6.4 | 0.00 | 0.00 | 0.00 | 87 | |
| 20260504224529 | 21 | 135 | 0.0 | 1.6 | 0.00 | 0.00 | 0.00 | 88 | |
| 20260504223529 | 21 | 149 | 3.2 | 6.4 | 0.00 | 0.00 | 0.00 | 89 | |
| 20260504222529 | 21 | 135 | 0.0 | 3.2 | 0.00 | 0.00 | 0.00 | 91 | |
| 20260504221529 | 20 | 112 | 0.0 | 1.6 | 0.00 | 0.00 | 0.00 | 93 | |
| 20260504220529 | 20 | 112 | 0.0 | 1.6 | 0.00 | 0.00 | 0.00 | 95 | |
| 20260504215529 | 19 | 0.0 | 0.0 | 0.00 | 0.00 | 0.00 | 96 | ||
| 20260504214529 | 18 | 0.0 | 0.0 | 0.00 | 0.00 | 0.00 | 97 | ||
| 20260504213529 | 18 | 112 | 0.0 | 3.2 | 0.00 | 0.00 | 0.00 | 98 | |
| 20260504212529 | 18 | 112 | 0.0 | 3.2 | 0.00 | 0.00 | 0.00 | 98 | |
| 20260504211529 | 18 | 135 | 0.0 | 3.2 | 0.00 | 0.05 | 0.00 | 98 | |
| 20260504210529 | 18 | 135 | 0.0 | 3.2 | 0.00 | 0.13 | 0.00 | 98 | |
| 20260504205529 | 18 | 0.0 | 0.0 | 0.00 | 0.13 | 0.00 | 98 | ||
| 20260504204529 | 18 | 0.0 | 0.0 | 0.00 | 0.13 | 0.00 | 98 | ||
| 20260504203529 | 18 | 0.0 | 0.0 | 0.00 | 0.13 | 0.00 | 98 | ||
| 20260504202529 | 18 | 135 | 0.0 | 1.6 | 0.00 | 0.13 | 0.00 | 98 | |
| 20260504201529 | 18 | 102 | 0.0 | 3.2 | 0.00 | 0.13 | 0.00 | 98 | |
| 20260504200529 | 18 | 41 | 0.0 | 3.2 | 0.00 | 0.13 | 0.00 | 98 | |
| 20260504195529 | 18 | 0.0 | 0.0 | 0.00 | 0.13 | 0.00 | 98 | ||
| 20260504194529 | 18 | 0.0 | 0.0 | 0.00 | 0.13 | 0.00 | 98 | ||
| 20260504193529 | 18 | 22 | 0.0 | 3.2 | 0.00 | 0.13 | 0.00 | 99 | |
| 20260504192529 | 18 | 0.0 | 0.0 | 0.00 | 0.13 | 0.00 | 98 | ||
| 20260504191529 | 18 | 45 | 0.0 | 1.6 | 0.00 | 0.13 | 0.00 | 98 | |
| 20260504190529 | 18 | 45 | 0.0 | 3.2 | 0.00 | 0.13 | 0.00 | 98 | |
| 20260504185529 | 18 | 0 | 0.0 | 3.2 | 0.00 | 0.13 | 0.00 | 98 | |
| 20260504184529 | 18 | 0.0 | 0.0 | 0.00 | 0.13 | 0.00 | 98 | ||
| 20260504183529 | 18 | 0.0 | 0.0 | 0.00 | 0.13 | 0.00 | 98 | ||
| 20260504182529 | 18 | 0.0 | 0.0 | 0.00 | 0.13 | 0.00 | 98 | ||
| 20260504181529 | 18 | 0.0 | 0.0 | 0.00 | 0.13 | 0.00 | 98 | ||
| 20260504180529 | 18 | 0 | 0.0 | 1.6 | 0.00 | 0.13 | 0.00 | 98 | |
| 20260504175529 | 18 | 0.0 | 0.0 | 0.00 | 0.13 | 0.00 | 98 | ||
| 20260504174529 | 18 | 0.0 | 0.0 | 0.00 | 0.13 | 0.00 | 98 | ||
| 20260504173529 | 19 | 0 | 0.0 | 3.2 | 0.00 | 0.13 | 0.00 | 98 | |
| 20260504172529 | 19 | 0.0 | 0.0 | 0.00 | 0.13 | 0.00 | 98 | ||
| 20260504171529 | 19 | 0.0 | 0.0 | 0.00 | 0.13 | 0.00 | 98 | ||
| 20260504170529 | 19 | 0 | 0.0 | 3.2 | 0.00 | 0.13 | 0.00 | 98 | |
| 20260504150529 | 18 | 0.0 | 0.0 | 0.00 | 0.13 | 0.00 | 98 | ||
| 20260504140529 | 19 | 0.0 | 0.0 | 0.00 | 0.13 | 0.00 | 97 | ||
| 20260504130529 | 19 | 0.0 | 0.0 | 0.00 | 0.13 | 0.13 | 96 | ||
| 20260504110529 | 20 | 0.0 | 0.0 | 0.00 | 0.13 | 0.13 | 94 | ||
| 20260504100541 | 20 | 0.0 | 0.0 | 0.00 | 0.13 | 0.13 | 96 | ||
| 20260504081529 | 21 | 0.0 | 0.0 | 0.00 | 0.13 | 0.13 | 91 | ||
| 20260504080529 | 21 | 0.0 | 0.0 | 0.00 | 0.13 | 0.13 | 90 | ||
| 20260504050529 | 26 | 112 | 1.6 | 4.8 | 0.00 | 0.13 | 0.13 | 71 | |
| 20260504045529 | 26 | 190 | 1.6 | 6.4 | 0.00 | 0.13 | 0.13 | 67 | |
| 20260504044529 | 26 | 160 | 1.6 | 3.2 | 0.00 | 0.13 | 0.13 | 66 | |
| 20260504043529 | 26 | 167 | 1.6 | 3.2 | 0.00 | 0.13 | 0.13 | 68 | |
| 20260504042529 | 25 | 191 | 1.6 | 6.4 | 0.00 | 0.13 | 0.13 | 67 | |
| 20260504041529 | 25 | 132 | 0.0 | 3.2 | 0.00 | 0.13 | 0.13 | 68 | |
| 20260504040529 | 25 | 112 | 0.0 | 3.2 | 0.00 | 0.13 | 0.13 | 69 | |
| 20260504035529 | 25 | 315 | 0.0 | 3.2 | 0.00 | 0.13 | 0.13 | 68 | |
| 20260504034529 | 25 | 180 | 0.0 | 3.2 | 0.00 | 0.13 | 0.13 | 68 | |
| 20260504033529 | 25 | 194 | 1.6 | 6.4 | 0.00 | 0.13 | 0.13 | 68 | |
| 20260504032529 | 25 | 135 | 0.0 | 3.2 | 0.00 | 0.13 | 0.13 | 69 | |
| 20260504031529 | 25 | 186 | 1.6 | 6.4 | 0.00 | 0.13 | 0.13 | 72 | |
| 20260504030529 | 25 | 118 | 3.2 | 8.0 | 0.00 | 0.13 | 0.13 | 72 | |
| 20260504025529 | 25 | 135 | 1.6 | 8.0 | 0.00 | 0.13 | 0.13 | 72 | |
| 20260504024529 | 25 | 153 | 1.6 | 6.4 | 0.00 | 0.13 | 0.13 | 72 | |
| 20260504023529 | 24 | 158 | 1.6 | 3.2 | 0.00 | 0.13 | 0.13 | 74 | |
| 20260504022529 | 25 | 202 | 0.0 | 3.2 | 0.00 | 0.13 | 0.13 | 73 | |
| 20260504021529 | 25 | 179 | 1.6 | 8.0 | 0.00 | 0.13 | 0.13 | 71 | |
| 20260504020529 | 25 | 89 | 0.0 | 3.2 | 0.00 | 0.13 | 0.13 | 70 | |
| 20260504015529 | 24 | 180 | 0.0 | 1.6 | 0.00 | 0.13 | 0.13 | 70 | |
| 20260504014529 | 25 | 180 | 0.0 | 1.6 | 0.00 | 0.13 | 0.13 | 71 | |
| 20260504013529 | 25 | 158 | 0.0 | 3.2 | 0.00 | 0.13 | 0.13 | 73 | |
| 20260504012529 | 25 | 153 | 1.6 | 8.0 | 0.00 | 0.13 | 0.13 | 75 | |
| 20260504011529 | 25 | 0.0 | 0.0 | 0.00 | 0.13 | 0.13 | 75 | ||
| 20260504010529 | 25 | 202 | 0.0 | 1.6 | 0.00 | 0.13 | 0.13 | 76 | |
| 20260504005529 | 25 | 202 | 0.0 | 1.6 | 0.00 | 0.13 | 0.13 | 74 | |
| 20260504004529 | 25 | 0.0 | 0.0 | 0.00 | 0.13 | 0.13 | 74 |